Weather History for KFET - February, 2012

Change the Weather History Date:

Monday, February 13, 2012

  Actual Average Record
Temperature  
Mean Temperature 28 °F -  
Max Temperature 32 °F 38 °F 66 °F (1967)
Min Temperature 24 °F 16 °F -7 °F (1986)
Degree Days  
Heating Degree Days 37    
Moisture  
Dew Point 27 °F    
Average Humidity 92    
Maximum Humidity 96    
Minimum Humidity 60    
Precipitation  
Precipitation 0.04 in - - ()
Sea Level Pressure  
Sea Level Pressure 29.81 in    
Wind  
Wind Speed 9 mph (SSE)    
Max Wind Speed 17 mph    
Max Gust Speed 24 mph    
Visibility 5 miles    
Events Snow    
Averages and records for this station are not official NWS values.
T = Trace of Precipitation, MM = Missing Value Source: NWS Daily Summary

Daily Weather History Graph

Daily Weather History Graph

Search for Another Location

Airport or City:

Trip Planner

Search our weather history database for the weather conditions in past years. The results will help you decide how hot, cold, wet, or windy it might be!

Date:

Astronomy

Feb. 13, 2012 Rise Set
Actual Time 7:24 AM CST 5:56 PM CST
Civil Twilight 6:55 AM CST 6:25 PM CST
Nautical Twilight 6:23 AM CST 6:57 PM CST
Astronomical Twilight 5:51 AM CST 7:30 PM CST
Moon 12:00 AM CST (2/13) 10:18 AM CST (2/13)
Length of Visible Light 11h 29m
Length of Day
10h 32m
Waning Gibbous, 61% of the Moon is Illuminated
Feb 13
Waning Gibbous
Feb 14
Last Quarter
Feb 21
New
Feb 29
First Quarter
Mar 8
Full

Hourly Weather History & Observations

Time (CST) Temp. Windchill Dew Point Humidity Pressure Visibility Wind Dir Wind Speed Gust Speed Precip Events Conditions
12:15 AM 27.9 °F 15.5 °F 15.6 °F 60% 30.02 in 7.0 mi South 17.3 mph 24.2 mph N/A Snow Light Snow
12:35 AM 24.8 °F 14.6 °F 22.5 °F 91% 30.01 in 0.8 mi South 10.4 mph - N/A Snow Snow
12:55 AM 25.5 °F 16.2 °F 21.6 °F 85% 30.01 in 5.0 mi South 9.2 mph - N/A Snow Light Snow
1:15 AM 25.5 °F 18.7 °F 21.6 °F 85% 30.00 in 4.0 mi SSE 5.8 mph - N/A Snow Light Snow
1:35 AM 25.2 °F 19.5 °F 21.7 °F 87% 29.99 in 3.0 mi SSE 4.6 mph - N/A Snow Light Snow
1:55 AM 25.3 °F 17.6 °F 21.4 °F 85% 29.98 in 3.0 mi SSE 6.9 mph - N/A Snow Light Snow
2:15 AM 25.3 °F 14.7 °F 21.9 °F 87% 29.97 in 1.5 mi SSE 11.5 mph 17.3 mph N/A Snow Light Snow
2:35 AM 24.8 °F 16.1 °F 23.0 °F 93% 29.96 in 2.0 mi SSE 8.1 mph - N/A Snow Light Snow
2:55 AM 25.0 °F 15.5 °F 23.4 °F 94% 29.94 in 2.5 mi SSE 9.2 mph - 0.01 in Snow Light Snow
3:15 AM 25.2 °F 15.7 °F 23.5 °F 94% 29.93 in 1.2 mi SE 9.2 mph - N/A Snow Snow
3:35 AM 25.2 °F 15.7 °F 23.4 °F 93% 29.92 in 1.5 mi SE 9.2 mph - 0.01 in Snow Light Snow
3:55 AM 25.2 °F 16.5 °F 23.4 °F 93% 29.90 in 2.0 mi SE 8.1 mph - 0.01 in Snow Light Snow
4:15 AM 25.3 °F 16.0 °F 23.5 °F 93% 29.89 in 1.8 mi SE 9.2 mph - N/A Snow Light Snow
4:35 AM 25.3 °F 15.3 °F 23.5 °F 93% 29.89 in 1.8 mi SE 10.4 mph - N/A Snow Light Snow
4:55 AM 25.5 °F 15.5 °F 23.7 °F 93% 29.88 in 2.0 mi SE 10.4 mph - N/A Snow Light Snow
5:15 AM 25.5 °F 16.2 °F 23.7 °F 93% 29.88 in 3.0 mi SE 9.2 mph - N/A Snow Light Snow
5:35 AM 25.7 °F 15.7 °F 23.7 °F 92% 29.87 in 10.0 mi SSE 10.4 mph - N/A   Overcast
5:55 AM 25.7 °F 14.6 °F 23.7 °F 92% 29.87 in 10.0 mi SSE 12.7 mph - N/A   Overcast
6:15 AM 26.1 °F 15.6 °F 24.3 °F 93% 29.86 in 7.0 mi SSE 11.5 mph - N/A   Overcast
6:35 AM 26.1 °F 16.2 °F 24.6 °F 94% 29.86 in 5.0 mi SSE 10.4 mph - N/A   Overcast
6:55 AM 26.2 °F 15.8 °F 24.8 °F 94% 29.85 in 3.0 mi SSE 11.5 mph - N/A   Overcast
7:15 AM 26.2 °F 16.4 °F 25.2 °F 96% 29.84 in 3.0 mi SSE 10.4 mph - N/A   Overcast
7:35 AM 26.2 °F 16.4 °F 25.3 °F 96% 29.84 in 3.0 mi SSE 10.4 mph - N/A   Overcast
7:55 AM 26.4 °F 17.3 °F 25.3 °F 96% 29.83 in 2.5 mi SSE 9.2 mph - N/A Snow Light Snow
8:15 AM 26.6 °F 16.8 °F 25.3 °F 95% 29.83 in 3.0 mi SSE 10.4 mph - N/A   Overcast
8:35 AM 26.8 °F 17.1 °F 25.5 °F 95% 29.82 in 3.0 mi SSE 10.4 mph - N/A   Overcast
8:55 AM 27.1 °F 18.2 °F 25.9 °F 95% 29.82 in 2.0 mi SSE 9.2 mph - N/A   Overcast
9:15 AM 27.5 °F 19.3 °F 26.4 °F 96% 29.81 in 2.0 mi SSE 8.1 mph - N/A   Overcast
9:35 AM 27.7 °F 19.6 °F 26.6 °F 96% 29.81 in 2.0 mi SSE 8.1 mph - N/A   Overcast
9:55 AM 28.2 °F 18.9 °F 27.1 °F 96% 29.81 in 2.0 mi SSE 10.4 mph - N/A   Overcast
10:15 AM 28.6 °F 20.7 °F 27.3 °F 95% 29.80 in 2.0 mi SSE 8.1 mph - N/A   Overcast
10:35 AM 29.1 °F 20.6 °F 27.9 °F 95% 29.79 in 2.0 mi SSE 9.2 mph - N/A   Overcast
10:55 AM 29.3 °F 20.8 °F 28.2 °F 96% 29.79 in 2.5 mi SSE 9.2 mph - N/A   Overcast
11:15 AM 29.8 °F 21.5 °F 28.4 °F 94% 29.78 in 3.0 mi South 9.2 mph - 0.01 in   Overcast
11:35 AM 30.2 °F 21.9 °F 28.4 °F 93% 29.77 in 3.0 mi South 9.2 mph - 0.01 in   Overcast
11:55 AM 30.2 °F 22.6 °F 28.4 °F 93% 29.77 in 3.0 mi SSE 8.1 mph - 0.01 in   Overcast
12:15 PM 30.7 °F 22.6 °F 29.1 °F 94% 29.75 in 3.0 mi SSE 9.2 mph - 0.01 in   Overcast
12:35 PM 30.9 °F 24.3 °F 28.9 °F 92% 29.75 in 4.0 mi South 6.9 mph - 0.01 in   Overcast
12:55 PM 31.1 °F 25.4 °F 29.3 °F 93% 29.74 in 4.0 mi South 5.8 mph - 0.01 in   Overcast
1:15 PM 31.1 °F 24.5 °F 29.3 °F 93% 29.74 in 3.0 mi South 6.9 mph - N/A   Overcast
1:35 PM 31.5 °F 26.8 °F 29.7 °F 93% 29.73 in 4.0 mi South 4.6 mph - N/A   Overcast
1:55 PM 31.8 °F 26.2 °F 29.8 °F 92% 29.72 in 4.0 mi South 5.8 mph - N/A   Overcast
2:15 PM 32.0 °F 26.4 °F 30.0 °F 92% 29.72 in 5.0 mi South 5.8 mph - N/A   Overcast
2:35 PM 32.0 °F 27.5 °F 30.0 °F 92% 29.72 in 5.0 mi South 4.6 mph - N/A   Overcast
2:55 PM 32.0 °F 27.5 °F 30.0 °F 92% 29.72 in 10.0 mi SSW 4.6 mph - N/A   Overcast
3:15 PM 32.0 °F 27.5 °F 29.7 °F 91% 29.72 in 10.0 mi SSW 4.6 mph - N/A   Overcast
3:35 PM 32.0 °F 27.5 °F 29.7 °F 91% 29.72 in 10.0 mi South 4.6 mph - N/A   Overcast
3:55 PM 32.0 °F 28.7 °F 29.7 °F 91% 29.72 in 10.0 mi South 3.5 mph - N/A   Overcast
4:15 PM 32.0 °F 27.5 °F 29.7 °F 91% 29.72 in 10.0 mi SSW 4.6 mph - N/A   Overcast
4:35 PM 32.0 °F 28.7 °F 29.8 °F 92% 29.71 in 10.0 mi South 3.5 mph - N/A   Overcast
4:55 PM 32.0 °F 28.7 °F 29.8 °F 92% 29.71 in 10.0 mi South 3.5 mph - N/A   Overcast
5:15 PM 32.0 °F - 30.0 °F 92% 29.72 in 10.0 mi Calm Calm - N/A   Overcast
5:35 PM 32.0 °F - 30.0 °F 92% 29.72 in 10.0 mi Calm Calm - N/A   Overcast
5:55 PM 31.8 °F - 30.0 °F 93% 29.72 in 10.0 mi Calm Calm - N/A   Overcast
6:15 PM 31.6 °F - 30.2 °F 94% 29.72 in 10.0 mi Calm Calm - N/A   Overcast
6:35 PM 31.5 °F - 30.0 °F 94% 29.73 in 4.0 mi Calm Calm - N/A Snow Light Snow
6:55 PM 31.5 °F - 30.2 °F 95% 29.73 in 4.0 mi Calm Calm - N/A Snow Light Snow
7:15 PM 31.5 °F - 30.4 °F 96% 29.74 in 5.0 mi Calm Calm - N/A   Overcast
7:35 PM 31.5 °F 28.1 °F 30.6 °F 96% 29.74 in 5.0 mi West 3.5 mph - N/A   Overcast
7:55 PM 31.1 °F 26.4 °F 30.0 °F 96% 29.74 in 10.0 mi West 4.6 mph - N/A   Overcast
8:15 PM 30.4 °F 26.9 °F 29.1 °F 95% 29.74 in 7.0 mi West 3.5 mph - N/A   Overcast
8:35 PM 27.1 °F 21.8 °F 26.1 °F 96% 29.74 in 4.0 mi West 4.6 mph - N/A   Scattered Clouds
8:55 PM 26.2 °F 22.1 °F 25.5 °F 97% 29.75 in 2.5 mi West 3.5 mph - N/A   Clear
9:15 PM 24.4 °F 20.1 °F 23.9 °F 98% 29.75 in 0.5 mi West 3.5 mph - N/A Fog Light Freezing Fog
9:35 PM 21.7 °F 14.3 °F 20.8 °F 96% 29.76 in 0.2 mi West 5.8 mph - N/A Fog Light Freezing Fog
9:55 PM 23.5 °F 16.4 °F 22.8 °F 97% 29.76 in 0.2 mi WNW 5.8 mph - N/A Fog Light Freezing Fog
10:15 PM 23.0 °F 17.0 °F 22.1 °F 96% 29.77 in 0.2 mi WNW 4.6 mph - N/A Fog Light Freezing Fog
10:35 PM 22.8 °F 18.2 °F 21.9 °F 96% 29.76 in 0.2 mi WNW 3.5 mph - N/A Fog Light Freezing Fog
10:55 PM 22.5 °F - 21.6 °F 96% 29.77 in 0.2 mi Calm Calm - N/A Fog Light Freezing Fog
11:15 PM 21.6 °F - 20.5 °F 96% 29.77 in 0.2 mi Calm Calm - N/A Fog Light Freezing Fog
11:35 PM 20.3 °F 15.4 °F 19.0 °F 95% 29.76 in 0.2 mi WNW 3.5 mph - N/A Fog Light Freezing Fog
11:55 PM 19.4 °F 14.3 °F 18.3 °F 96% 29.76 in 0.2 mi West 3.5 mph - N/A Fog Light Freezing Fog